Location: Chervonnoye
(48.6000°N, 34.4000°E)
Time: 21:21:38
(UTC+00:00)

RS-44 - Pass Details

Date: 01 December 2021
Orbit: 1175 x 1510 km, 82.5° (Epoch: 19 January)

Event Time Altitude Azimuth Distance (km) Brightness Sun altitude
Rises 16:57:31 0° 173° (S) 4,138 ? -30.3°
Reaches altitude 10° 17:00:16 10° 169° (S) 3,146 ? -30.8°
Enters shadow 17:00:25 11° 169° (S) 3,089 ? -30.8°
Exits shadow 17:16:54 - 13° (NNE) 4,029 ? -33.5°
Sets 17:17:01 0° 13° (NNE) 4,073 ? -33.5°
